Total_Precipitation_Accumulation
0.18 0.19 0.16 0.13 0.13 0.14 0.17 0.21 0.30 0.42 0.64 0.87 1.11 1.24 1.35 1.41 1.32 1.19 1.13 1.01 0.88 0.82 0.77 0.67 0.64 0.59 0.55 0.52 0.47 0.40 0.37 0.36 0.37 0.37 0.36 0.33 0.31 0.28 0.27 0.27 0.24 0.23 0.20 0.17
0.17 0.18 0.19 0.18 0.16 0.15 0.21 0.25 0.36 0.55 0.82 1.08 1.24 1.27 1.33 1.39 1.31 1.24 1.22 1.19 1.17 1.11 1.03 0.90 0.75 0.65 0.60 0.55 0.51 0.45 0.44 0.45 0.45 0.43 0.39 0.37 0.35 0.33 0.32 0.29 0.25 0.20 0.16 0.13
0.15 0.14 0.23 0.36 0.29 0.24 0.30 0.36 0.47 0.66 0.81 0.97 1.11 1.24 1.25 1.25 1.30 1.35 1.46 1.50 1.44 1.28 1.13 0.99 0.87 0.80 0.74 0.66 0.61 0.59 0.57 0.53 0.47 0.42 0.39 0.36 0.32 0.33 0.31 0.26 0.20 0.17 0.13 0.09
0.16 0.20 0.39 0.44 0.28 0.29 0.42 0.51 0.54 0.60 0.64 0.80 0.98 1.08 1.11 1.16 1.29 1.38 1.44 1.39 1.29 1.14 1.01 0.95 0.93 0.90 0.80 0.70 0.64 0.60 0.57 0.52 0.43 0.35 0.31 0.30 0.30 0.28 0.22 0.18 0.16 0.14 0.11 0.08
0.24 0.33 0.46 0.52 0.32 0.31 0.45 0.58 0.52 0.58 0.58 0.70 0.77 0.87 1.01 1.10 1.19 1.29 1.26 1.18 1.14 1.09 1.02 1.01 0.99 0.90 0.80 0.72 0.63 0.57 0.51 0.41 0.31 0.25 0.24 0.23 0.21 0.18 0.16 0.16 0.15 0.10 0.07 0.07
0.36 0.43 0.55 0.56 0.28 0.25 0.45 0.77 0.61 0.64 0.64 0.64 0.70 0.87 0.92 0.93 0.92 0.96 0.97 1.02 1.09 1.16 1.19 1.12 0.98 0.79 0.69 0.62 0.51 0.42 0.33 0.26 0.21 0.19 0.15 0.13 0.13 0.14 0.14 0.14 0.12 0.07 0.05 0.07
0.50 0.62 0.66 0.34 0.17 0.29 0.64 0.73 0.63 0.64 0.67 0.66 0.71 0.75 0.64 0.65 0.74 0.82 0.89 0.96 1.02 1.04 1.02 0.94 0.82 0.69 0.62 0.51 0.41 0.29 0.21 0.18 0.15 0.11 0.09 0.08 0.11 0.13 0.12 0.11 0.11 0.09 0.08 0.10
0.57 0.69 0.74 0.32 0.21 0.38 0.49 0.43 0.44 0.49 0.53 0.52 0.53 0.55 0.58 0.60 0.64 0.71 0.82 0.88 0.87 0.82 0.77 0.66 0.55 0.51 0.51 0.42 0.28 0.19 0.15 0.12 0.10 0.07 0.04 0.05 0.11 0.12 0.12 0.13 0.12 0.10 0.10 0.10
0.67 0.76 0.56 0.30 0.27 0.30 0.36 0.36 0.36 0.40 0.43 0.45 0.48 0.52 0.61 0.67 0.70 0.70 0.69 0.70 0.65 0.55 0.48 0.43 0.37 0.36 0.36 0.29 0.19 0.14 0.13 0.12 0.09 0.06 0.06 0.06 0.10 0.12 0.11 0.11 0.10 0.08 0.09 0.10
0.58 0.64 0.46 0.30 0.26 0.26 0.27 0.28 0.30 0.38 0.42 0.42 0.42 0.41 0.47 0.53 0.57 0.56 0.53 0.49 0.42 0.35 0.30 0.27 0.23 0.21 0.20 0.16 0.14 0.15 0.16 0.13 0.11 0.12 0.11 0.09 0.09 0.07 0.07 0.08 0.07 0.08 0.09 0.11
0.66 0.65 0.51 0.41 0.30 0.26 0.28 0.30 0.34 0.38 0.37 0.34 0.30 0.28 0.29 0.32 0.34 0.32 0.30 0.27 0.24 0.21 0.18 0.15 0.12 0.10 0.10 0.09 0.10 0.15 0.14 0.11 0.10 0.11 0.11 0.11 0.10 0.04 0.03 0.04 0.02 0.04 0.08 0.09
0.78 0.63 0.50 0.48 0.39 0.34 0.33 0.30 0.27 0.24 0.24 0.27 0.26 0.25 0.25 0.25 0.24 0.22 0.18 0.16 0.15 0.13 0.11 0.09 0.06 0.05 0.05 0.05 0.07 0.13 0.13 0.10 0.07 0.07 0.07 0.09 0.13 0.11 0.03 0.01 0.01 0.02 0.03 0.05
0.49 0.40 0.37 0.36 0.36 0.39 0.31 0.24 0.21 0.17 0.14 0.17 0.21 0.20 0.19 0.19 0.17 0.13 0.12 0.11 0.10 0.09 0.07 0.05 0.04 0.04 0.04 0.03 0.04 0.07 0.10 0.08 0.06 0.05 0.06 0.07 0.12 0.18 0.16 0.09 0.04 0.04 0.03 0.04
0.37 0.39 0.42 0.32 0.26 0.25 0.18 0.16 0.14 0.12 0.10 0.11 0.13 0.13 0.13 0.11 0.10 0.08 0.08 0.06 0.05 0.04 0.02 0.02 0.02 0.03 0.02 0.02 0.03 0.04 0.07 0.04 0.03 0.05 0.05 0.07 0.09 0.11 0.14 0.17 0.19 0.18 0.09 0.04
0.32 0.31 0.29 0.20 0.14 0.14 0.10 0.08 0.08 0.09 0.09 0.10 0.09 0.09 0.08 0.08 0.06 0.05 0.04 0.02 0.02 0.02 0.01 0.02 0.03 0.03 0.02 0.01 0.02 0.04 0.05 0.07 0.06 0.04 0.04 0.05 0.06 0.08 0.09 0.12 0.15 0.17 0.15 0.11
0.22 0.18 0.13 0.11 0.11 0.12 0.10 0.08 0.07 0.07 0.07 0.08 0.07 0.07 0.05 0.04 0.03 0.03 0.02 0.01 0.02 0.03 0.02 0.02 0.02 0.02 0.01 0.01 0.02 0.04 0.03 0.01 0.02 0.03 0.02 0.03 0.04 0.06 0.07 0.10 0.14 0.17 0.17 0.15
0.15 0.14 0.12 0.10 0.09 0.10 0.09 0.07 0.06 0.05 0.05 0.06 0.05 0.04 0.02 0.02 0.02 0.03 0.02 0.01 0.01 0.01 0.01 0.01 0.01 0.00 0.00 0.01 0.01 0.02 0.03 0.01 0.01 0.01 0.02 0.03 0.03 0.03 0.05 0.08 0.12 0.17 0.17 0.13
0.08 0.08 0.08 0.07 0.05 0.05 0.04 0.04 0.03 0.03 0.03 0.02 0.02 0.01 0.02 0.02 0.02 0.02 0.01 0.00 0.00 0.00 0.00 0.00 0.00 0.00 0.00 0.00 0.01 0.01 0.01 0.01 0.01 0.01 0.01 0.01 0.01 0.02 0.04 0.06 0.09 0.12 0.14 0.15
0.05 0.04 0.04 0.03 0.02 0.02 0.02 0.02 0.02 0.01 0.01 0.01 0.01 0.01 0.01 0.01 0.01 0.00 0.00 0.00 0.00 0.01 0.01 0.00 0.00 0.00 0.00 0.01 0.00 0.01 0.00 0.00 0.00 0.01 0.00 0.00 0.01 0.02 0.03 0.05 0.07 0.09 0.11 0.14
0.03 0.02 0.02 0.02 0.02 0.02 0.02 0.01 0.01 0.00 0.01 0.02 0.02 0.00 0.00 0.00 0.00 0.00 0.00 0.00 0.00 0.00 0.00 0.00 0.00 0.00 0.00 0.00 0.00 0.00 0.00 0.00 0.00 0.00 0.00 0.00 0.01 0.01 0.02 0.03 0.04 0.07 0.09 0.13
0.03 0.02 0.01 0.01 0.01 0.01 0.01 0.01 0.01 0.01 0.01 0.02 0.01 0.00 0.00 0.00 0.00 0.00 0.00 0.01 0.01 0.00 0.00 0.00 0.00 0.00 0.00 0.00 0.00 0.00 0.00 0.00 0.00 0.00 0.00 0.00 0.01 0.01 0.01 0.02 0.02 0.04 0.06 0.08
0.03 0.02 0.01 0.01 0.01 0.01 0.01 0.02 0.01 0.01 0.02 0.02 0.01 0.00 0.00 0.00 0.00 0.00 0.00 0.00 0.01 0.00 0.00 0.00 0.00 0.00 0.00 0.00 0.00 0.00 0.00 0.00 0.00 0.00 0.00 0.00 0.00 0.01 0.01 0.01 0.01 0.02 0.03 0.04
0.07 0.04 0.02 0.01 0.01 0.02 0.02 0.02 0.02 0.02 0.02 0.01 0.00 0.00 0.00 0.00 0.00 0.00 0.00 0.00 0.00 0.00 0.00 0.00 0.00 0.00 0.00 0.00 0.00 0.00 0.00 0.00 0.00 0.00 0.00 0.00 0.00 0.00 0.00 0.00 0.01 0.01 0.01 0.02
0.09 0.06 0.04 0.03 0.02 0.03 0.03 0.02 0.03 0.03 0.01 0.01 0.00 0.00 0.00 0.00 0.00 0.00 0.00 0.00 0.00 0.00 0.00 0.00 0.00 0.00 0.00 0.00 0.00 0.00 0.00 0.00 0.00 0.00 0.00 0.00 0.00 0.00 0.00 0.00 0.00 0.00 0.01 0.01
0.11 0.08 0.06 0.05 0.06 0.05 0.04 0.03 0.03 0.02 0.01 0.00 0.00 0.00 0.00 0.00 0.00 0.00 0.00 0.00 0.00 0.00 0.00 0.00 0.00 0.00 0.00 0.00 0.00 0.00 0.00 0.00 0.00 0.00 0.00 0.00 0.00 0.00 0.00 0.00 0.00 0.00 0.00 0.00
0.16 0.14 0.11 0.09 0.08 0.06 0.03 0.03 0.03 0.01 0.00 0.00 0.00 0.00 0.00 0.00 0.00 0.00 0.00 0.00 0.00 0.00 0.00 0.00 0.00 0.00 0.00 0.00 0.00 0.00 0.00 0.00 0.00 0.00 0.00 0.00 0.00 0.00 0.00 0.00 0.00 0.00 0.00 0.00
0.22 0.16 0.13 0.09 0.06 0.03 0.02 0.02 0.01 0.00 0.00 0.00 0.00 0.00 0.00 0.00 0.00 0.00 0.00 0.00 0.00 0.00 0.00 0.00 0.00 0.00 0.00 0.00 0.00 0.00 0.00 0.00 0.00 0.00 0.00 0.00 0.00 0.00 0.00 0.00 0.00 0.00 0.00 0.00